Regional Weather Roundup
Issued by NWS Albany, NY

Home | Current Version | Previous Version | Text Only | Print | Product List | Glossary On
Versions: 1 2 3 4 5 6 7 8 9 10 11 12 13 14 15 16 17 18 19 20 21 22 23 24 25 26 27 28 29 30 31 32 33 34 35 36 37 38 39 40 41 42 43 44 45 46 47 48 49 50
000
ASUS41 KALY 050010
RWRALY

NEW YORK STATE HOURLY WEATHER ROUNDUP
NATIONAL WEATHER SERVICE ALBANY NY
700 PM EST WED MAR 04 2015

NOTE: "FAIR" INDICATES FEW OR NO CLOUDS BELOW 12,000 FEET WITH NO
SIGNIFICANT WEATHER AND/OR NO OBSTRUCTIONS TO VISIBILITY.

NYZ032-033-038>043-046>054-057>066-NYZ062>081-050100-
EAST


CITY           SKY/WX    TMP DP  RH WIND       PRES   REMARKS
ALBANY         CLOUDY    36  26  67 NW6       29.85F WCI  31
GLENS FALLS    CLOUDY    36  22  56 CALM      29.84S
POUGHKEEPSIE   CLOUDY    38  32  79 CALM      29.85F
NEWBURGH       CLOUDY    37  34  87 CALM      29.86R
MONTGOMERY     CLOUDY    36  33  89 S3        29.84S
WHITE PLAINS   LGT RAIN  37  35  92 CALM      29.86R FOG
ISLIP          CLOUDY    38  35  89 SW7       29.88R FOG     WCI  33
NEW YORK CITY  CLOUDY    44  39  82 SW12      29.89R
CENTRAL PARK   CLOUDY    43  38  82 W8        29.91R HAZE
$$

NYZ005>009-017-018-044>046-055-056-050100-
CENTRAL


CITY           SKY/WX    TMP DP  RH WIND       PRES   REMARKS
FULTON         CLOUDY    31  21  66 W13       29.92R WCI  21
SYRACUSE       CLOUDY    27  23  85 W7        29.91R WCI  19
ROME           CLOUDY    29  22  75 W6        29.91R WCI  23
ELMIRA         CLOUDY    38  25  59 NW7       29.88R WCI  33
BINGHAMTON     CLOUDY    32  25  75 N8        29.83R WCI  25
MONTICELLO     CLOUDY    36  32  87 W6        29.82F WCI  31
$$

NYZ026>034-041>043-050100-
NORTH


CITY           SKY/WX    TMP DP  RH WIND       PRES   REMARKS
WATERTOWN      CLOUDY    31  23  72 W12       29.89R WCI  22
FORT DRUM      NOT AVBL
MASSENA        CLOUDY    32  14  47 SW17G24   29.80R WCI  21
SARANAC LAKE   CLOUDY    25  17  72 SW14G22   29.73R WCI  13
PLATTSBURGH    CLOUDY    32  18  56 SW8       29.76F WCI  25
$$

NYZ001>004-010>016-019>021-050100-
WEST


CITY           SKY/WX    TMP DP  RH WIND       PRES   REMARKS
NIAGARA FALLS  CLOUDY    30  23  75 W8        29.93R WCI  22
BUFFALO        CLOUDY    30  24  78 SW12      29.92R WCI  20
DUNKIRK        CLOUDY    30  25  81 SW13G21   29.95R WCI  20
JAMESTOWN      CLOUDY    27  19  74 W10       29.90S WCI  17
WELLSVILLE     CLOUDY    30  21  69 NW12      29.87R WCI  20
ROCHESTER      CLOUDY    32  22  66 W10       29.93R WCI  24
PENN YAN       CLOUDY    33  21  61 W13G23    29.91R WCI  24
$$

             KEY
       WCI = WIND CHILL INDEX
       VSB = VISIBILITY
       HX  = HEAT INDEX
$$



USA.gov is the U.S. government's official web portal to all federal, state and local government web resources and services.